Location: *
(31.2983°S, 151.4094°E)
Time: 23:13:51
(UTC+00:00)

Atlas 2A Centaur Rocket - Pass Details

Date: 25 August 2019
Orbit: 264 x 19527 km, 27.0° (Epoch: 18 September)

Event Time Altitude Azimuth Distance (km) Brightness Sun altitude
Exits shadow 18:04:47 44° 34° (NE) 1,016 3.2 -29.3°
Drops below altitude 10° 18:12:34 10° 76° (ENE) 4,489 7.3 -27.6°
Sets 18:20:27 0° 79° (E) 7,788 8.9 -26.0°
